Simultaneous Nadir Overpasses (SNOs) Predictions

Prediction of SNOs between GOES-14 and NPP Satellite Orbit:

Table of predicted SNOs for the next 14.0 days since TLE Epoch: 10/24/2025
Index Date Time (GOES-14) GOES-14 Lat,Lon NPP Lat,Lon Distance(km) Time Diff (sec)
1 10/26/2025 08:41:19 -0.52,-108.48 -0.51,-108.42 6.46 44
2 10/28/2025 20:46:34 0.46,-108.43 0.26,-109.17 85.21 80
3 10/29/2025 20:25:12 0.53,-108.43 1.36,-104.66 429.51 80
4 10/31/2025 08:49:39 -0.41,-108.48 -0.06,-109.90 163.32 80
5 11/01/2025 08:28:17 -0.48,-108.47 -1.16,-105.39 350.78 80
6 11/02/2025 20:52:51 0.35,-108.42 -0.17,-110.66 255.38 80
7 11/03/2025 20:31:29 0.42,-108.42 0.94,-106.14 259.24 80
8 11/05/2025 08:55:56 -0.29,-108.46 0.35,-111.39 332.71 80
9 11/06/2025 08:34:32 -0.36,-108.45 -0.70,-106.86 180.98 80
